Terminal Aerodrome Forecast
Issued by NWS

Home | Current Version | Previous Version | Text Only | Print | Product List | Glossary On
Versions: 1 2 3 4 5 6 7 8 9 10 11 12 13 14 15 16 17 18 19 20 21 22 23 24
000
FTUS46 KOTX 260532
TAFMWH
TAF
KMWH 260532Z 2606/2706 27009KT P6SM FEW090
     FM270300 01003KT P6SM BCFG SCT001=

USA.gov is the U.S. government's official web portal to all federal, state and local government web resources and services.